DateTimeUTC,F1_A11,F1_S11,BsB_S11,BsG_S11,BsR_S11,BbsB_S11,BbsG_S11,BbsR_S11,BaB_A11,BaG_A11,BaR_A11,Tu_S11,T_S11,Uu_S11,U_S11,P_S11,T1_A11
2021-06-06T21:00:00Z,00000200,20000000,,,,,,,-000.10,-000.22,-000.63,19.1,25.7,08.2,05.5,0672.8,31.1
2021-06-06T21:01:00Z,00000200,20000000,,,,,,,-000.44,0000.04,0000.62,19.1,25.7,08.2,05.5,0672.8,31.1
2021-06-06T21:02:00Z,00000200,20000000,,,,,,,0000.07,0000.22,-000.13,19.1,25.7,08.2,05.5,0672.8,31.1
2021-06-06T21:03:00Z,00000200,60000000,,,,,,,0000.87,0000.42,0000.30,19.1,25.7,08.2,05.5,0672.8,31.1
2021-06-06T21:04:00Z,00000200,40000000,0003.74,0002.11,0000.97,0000.12,0000.46,0000.27,0000.16,0000.17,0000.53,19.2,25.5,08.3,05.7,0673.7,31.1
2021-06-06T21:05:00Z,00000200,00000000,0002.80,0002.36,0001.30,0000.33,0000.20,0000.23,0000.92,0000.63,-000.07,19.2,25.5,08.4,05.8,0673.8,31.1
2021-06-06T21:06:00Z,00000200,00000000,0002.67,0002.23,0001.29,-000.11,0000.28,0000.38,0000.60,0000.49,0000.95,19.2,25.5,08.4,05.8,0673.8,31.1
2021-06-06T21:07:00Z,00000200,00000000,0003.98,0002.15,0001.02,0001.27,0000.29,0000.24,0000.15,0000.67,0000.39,19.2,25.4,08.6,05.9,0673.8,31.1
2021-06-06T21:08:00Z,00000200,00000000,0003.26,0001.89,0001.22,0000.77,0000.31,0000.30,0000.15,0000.33,0000.43,19.2,25.4,08.6,05.9,0673.8,31.1
2021-06-06T21:09:00Z,00000200,00000000,0003.52,0002.40,0001.38,0000.39,0000.25,0000.23,0000.93,0000.41,0000.32,19.2,25.4,08.7,06.0,0673.8,31.1
2021-06-06T21:10:00Z,00000200,00000000,0003.58,0002.31,0001.39,0000.97,0000.54,-000.05,0000.16,0000.48,0000.17,19.2,25.4,08.6,05.9,0673.8,31.1
2021-06-06T21:11:00Z,00000200,00000000,0002.85,0002.13,0001.18,0000.48,0000.39,0000.42,0000.50,0000.27,0000.29,19.2,25.4,08.5,05.8,0673.8,31.1
2021-06-06T21:12:00Z,00000200,00000000,0002.99,0002.27,0001.02,0000.25,0000.18,0000.08,0000.34,0000.21,0000.60,19.2,25.4,08.5,05.8,0673.8,31.1
2021-06-06T21:13:00Z,00000200,00000000,0003.64,0001.99,0000.87,0000.99,0000.47,0000.29,0000.49,0000.80,0000.27,19.2,25.4,08.6,05.9,0673.8,31.1
2021-06-06T21:14:00Z,00000200,00000000,0003.08,0001.96,0001.11,0000.52,0000.33,0000.25,0000.48,0000.44,0000.29,19.2,25.4,08.4,05.8,0673.8,31.1
2021-06-06T21:15:00Z,00000200,00000000,0003.13,0001.73,0000.59,0000.43,0000.10,0000.16,0000.01,-000.45,0000.21,19.2,25.4,08.4,05.7,0673.8,31.1
2021-06-06T21:16:00Z,00000200,00000000,0002.43,0001.64,0000.90,0000.26,0000.23,0000.28,0000.28,0000.24,0000.18,19.2,25.4,08.2,05.6,0673.7,31.1
2021-06-06T21:17:00Z,00000200,00000000,0002.01,0002.08,0000.75,0000.73,0000.35,0000.26,-000.14,0000.38,0000.21,19.2,25.4,08.1,05.5,0673.8,31.1
2021-06-06T21:18:00Z,00000200,00000000,0002.38,0001.68,0000.77,-000.29,0000.51,0000.20,0000.67,0000.41,0000.17,19.2,25.4,08.1,05.5,0673.8,31.1
2021-06-06T21:19:00Z,00000200,00000000,0002.61,0001.82,0000.96,0000.67,0000.53,0000.19,0000.28,-000.00,0000.19,19.1,25.4,08.0,05.5,0673.8,31.1
2021-06-06T21:20:00Z,00000200,00000000,0002.75,0001.82,0001.03,0000.63,0000.26,0000.20,0000.27,0000.57,0000.51,19.1,25.4,07.9,05.4,0673.8,31.1
2021-06-06T21:21:00Z,00000200,00000000,0002.26,0002.15,0000.95,0000.56,0000.50,0000.01,0000.14,0000.05,-000.31,19.1,25.4,07.9,05.4,0673.8,31.1
2021-06-06T21:22:00Z,00000200,00000000,0003.06,0002.02,0000.93,0000.17,0000.37,0000.31,0000.26,0000.46,0000.58,19.1,25.4,07.8,05.3,0673.8,31.1
2021-06-06T21:23:00Z,00000200,00000000,0002.73,0001.85,0000.93,0000.43,0000.28,0000.23,0000.14,0000.20,-000.06,19.1,25.4,07.7,05.3,0673.8,31.1
2021-06-06T21:24:00Z,00000200,00000000,0002.57,0001.92,0000.87,0000.62,0000.12,0000.25,0000.30,0000.19,0000.53,19.1,25.3,07.6,05.2,0673.8,31.1
2021-06-06T21:25:00Z,00000200,00000000,0002.86,0002.20,0000.88,0000.11,0000.22,0000.51,0000.61,0000.43,0000.34,19.1,25.3,07.5,05.1,0673.8,31.1
2021-06-06T21:26:00Z,00000200,00000000,0003.11,0002.27,0001.15,0000.38,0000.57,0000.43,0000.37,0000.63,0000.23,19.1,25.3,07.5,05.1,0673.8,31.1
2021-06-06T21:27:00Z,00000200,00000000,0002.30,0002.06,0001.22,0000.09,0000.39,0000.16,0000.15,-000.07,0000.07,19.1,25.3,07.6,05.2,0673.8,31.1
2021-06-06T21:28:00Z,00000200,00000000,0002.91,0001.68,0001.11,-000.05,0000.13,0000.38,0000.68,0000.65,0000.65,19.1,25.3,07.5,05.1,0673.8,31.1
2021-06-06T21:29:00Z,00000200,00000000,0002.54,0002.37,0001.04,0000.76,0000.38,0000.19,0000.44,0000.31,0000.19,19.1,25.3,07.5,05.1,0673.7,31.1
2021-06-06T21:30:00Z,00000200,00000000,0003.05,0002.03,0000.97,0000.42,0000.34,0000.31,0000.35,0000.21,0000.26,19.1,25.3,07.5,05.1,0673.7,31.1
2021-06-06T21:31:00Z,00000200,00000000,0003.12,0001.89,0001.05,0000.22,0000.49,0000.41,0000.52,0000.75,0000.49,19.1,25.3,07.5,05.1,0673.7,31.1
2021-06-06T21:32:00Z,00000200,00000000,0002.99,0001.91,0001.14,0000.23,0000.36,0000.39,0000.07,0000.10,0000.60,19.1,25.3,07.5,05.1,0673.7,31.1
2021-06-06T21:33:00Z,00000200,00000000,0002.80,0001.66,0001.15,0000.04,0000.21,0000.57,0000.57,0000.28,0000.37,19.0,25.3,07.4,05.1,0673.8,31.1
2021-06-06T21:34:00Z,00000200,00000000,0002.86,0001.72,0001.10,0000.65,0000.28,0000.33,0000.41,0000.57,-000.03,19.0,25.3,07.5,05.1,0673.8,31.1
2021-06-06T21:35:00Z,00000200,00000000,0003.04,0002.28,0000.96,0000.79,0000.27,0000.14,0000.44,0000.27,0000.48,19.0,25.3,07.5,05.1,0673.8,31.1
2021-06-06T21:36:00Z,00000200,00000000,0002.40,0001.94,0001.04,0000.73,0000.34,0000.49,0000.01,0000.26,0000.28,19.0,25.3,07.5,05.1,0673.8,31.1
2021-06-06T21:37:00Z,00000200,00000000,0003.30,0001.95,0000.69,0000.67,0000.14,0000.06,0000.53,0000.54,0000.17,19.0,25.3,07.4,05.0,0673.8,31.1
2021-06-06T21:38:00Z,00000200,00000000,0002.27,0001.47,0001.14,0000.57,0000.24,0000.40,0000.91,0000.51,0000.63,19.0,25.3,07.3,05.0,0673.8,31.1
2021-06-06T21:39:00Z,00000200,00000000,0003.07,0001.90,0001.23,0000.74,0000.54,0000.32,0000.13,0000.42,0000.22,19.0,25.3,07.4,05.1,0673.8,31.1
2021-06-06T21:40:00Z,00000200,00000000,0003.02,0002.23,0000.86,-000.68,0000.30,0000.34,0000.29,0000.20,-000.06,19.0,25.3,07.4,05.1,0673.8,31.1
2021-06-06T21:41:00Z,00000200,00000000,0002.44,0001.61,0001.12,0000.16,0000.35,0000.50,0000.80,0000.56,0000.89,19.0,25.3,07.4,05.1,0673.8,31.1
2021-06-06T21:42:00Z,00000200,00000000,0002.13,0001.83,0000.71,0000.63,0000.16,0000.29,-000.03,0000.16,-000.30,19.0,25.3,07.5,05.1,0673.8,31.1
2021-06-06T21:43:00Z,00000200,00000000,0002.76,0001.99,0000.99,0000.22,0000.14,0000.18,0000.62,0000.30,0000.24,19.0,25.3,07.5,05.1,0673.8,31.1
2021-06-06T21:44:00Z,00000200,00000000,0003.50,0001.91,0000.89,0000.74,0000.45,0000.11,-000.13,0000.26,0000.82,19.0,25.2,07.5,05.1,0673.8,31.1
2021-06-06T21:45:00Z,00000200,00000000,0003.42,0001.80,0001.03,0000.56,0000.17,0000.47,0000.64,0000.20,-000.01,19.0,25.2,07.4,05.1,0673.8,31.1
2021-06-06T21:46:00Z,00000200,00000000,0002.92,0002.14,0001.09,0000.69,0000.47,0000.29,0000.42,0000.44,0000.51,19.0,25.2,07.4,05.1,0673.8,31.1
2021-06-06T21:47:00Z,00000200,00000000,0002.62,0001.81,0000.84,0000.03,0000.27,0000.16,0000.32,0000.44,0000.14,19.0,25.2,07.4,05.1,0673.8,31.1
2021-06-06T21:48:00Z,00000200,00000000,0002.53,0001.94,0000.93,0000.42,0000.07,0000.23,0000.52,0000.66,0000.16,19.0,25.2,07.3,05.0,0673.8,31.1
2021-06-06T21:49:00Z,00000200,00000000,0002.71,0002.33,0000.72,-000.04,0000.48,0000.18,0000.19,0000.01,0000.51,19.0,25.2,07.1,04.9,0673.8,31.1
2021-06-06T21:50:00Z,00000200,00000000,0003.73,0002.08,0000.93,0000.20,0000.23,0000.61,0000.21,0000.24,0000.20,19.0,25.2,07.1,04.9,0673.8,31.1
2021-06-06T21:51:00Z,00000200,00000000,0003.36,0002.34,0001.42,0000.41,0000.51,0000.26,0000.01,0000.21,0000.32,19.0,25.2,07.2,04.9,0673.8,31.1
2021-06-06T21:52:00Z,00000200,00000000,0003.54,0002.61,0001.11,0000.49,0000.42,0000.17,0000.76,0000.59,0000.34,19.0,25.2,07.0,04.8,0673.8,31.1
2021-06-06T21:53:00Z,00000200,00000000,0004.27,0002.65,0001.51,0000.70,0000.33,0000.52,0000.49,0000.56,0000.03,18.9,25.2,07.0,04.8,0673.8,31.1
2021-06-06T21:54:00Z,00000200,00000000,0003.80,0002.61,0001.33,0000.27,0000.27,0000.48,0000.39,0000.33,0000.36,18.9,25.2,06.9,04.8,0673.8,31.1
2021-06-06T21:55:00Z,00000200,00000000,0004.44,0003.10,0001.68,0000.93,0000.49,0000.38,0000.56,0000.07,0000.66,18.9,25.2,06.9,04.8,0673.8,31.0
2021-06-06T21:56:00Z,00000200,00000000,0004.21,0002.84,0001.42,0000.15,0000.60,0000.16,0000.54,0000.98,0000.63,18.9,25.2,06.9,04.8,0673.7,31.0
2021-06-06T21:57:00Z,00000200,40000000,,,,,,,0000.41,0000.33,0000.32,19.0,25.2,07.0,04.8,0673.7,31.1
2021-06-06T21:58:00Z,00000200,60000000,,,,,,,-000.05,-000.08,-000.17,18.7,25.3,07.4,04.9,0672.8,31.1
2021-06-06T21:59:00Z,00000200,20000000,,,,,,,-000.34,-000.31,-000.01,18.7,25.4,07.2,04.8,0672.8,31.1
